Flag for United Kingdom Weather past 2 weeks in Cheltenham, England, United Kingdom

Now
63 °F

Scattered showers. Scattered clouds.


Feels Like: 63 °F
Forecast: 47 / 65 °F
Wind: 6 mph from West

Location: Staverton Private

Current Time: Jul 29, 2015 at 12:40:35 PM

Latest Report: Jul 29, 2015 at 12:20 PM


Visibility: N/A

Pressure: 29.86 "Hg

Humidity: 59%

Dew point: 48 °F

Location of CheltenhamLocation

Historic Weather in Cheltenham — Graph

°F

Cheltenham temperature yesterday

Maximum temperature yesterday: 64 °F (at 2:50 PM)
Minimum temperature yesterday: 57 °F (at 6:50 AM)
Average temperature yesterday: 62 °F

Past Weeks' High & Low Weather Summary

 TemperatureHumidityPressure
High75 °F (Jul 16, 4:20 PM)100% (Jul 14, 11:50 AM)30.12 "Hg (Jul 14, 11:50 AM)
Low50 °F (Jul 16, 6:50 AM)33% (Jul 19, 4:20 PM)29.39 "Hg (Jul 26, 5:50 PM)
Average64 °F70%29.86 "Hg
* Reported Jul 14 11:20 AM — Jul 29 11:20 AM, Cheltenham, Weather by CustomWeather, © 2015

Note: Actual official high and low records may vary slightly from our data, if they occured in-between our weather recording intervals... More about our weather records

Advertising

Cheltenham weather history for previous 24 hours

 ConditionsComfort  
Time TempWeatherWind HumidityBarometerVisibility
11:20 AM
Wed, Jul 29
63 °FScattered clouds.7 mph64%29.86 "HgN/A
10:50 AM61 °FScattered clouds.7 mph68%29.86 "HgN/A
10:20 AM59 °FScattered clouds.8 mph72%29.83 "HgN/A
9:50 AM59 °FScattered clouds.9 mph72%29.83 "HgN/A
9:20 AM59 °FScattered clouds.7 mph72%29.83 "HgN/A
8:20 AM57 °FScattered clouds.8 mph72%29.83 "HgN/A
7:50 AM54 °FPartly sunny.3 mph82%29.83 "HgN/A
7:20 AM54 °FPartly sunny.6 mph82%29.80 "HgN/A
6:50 AM52 °FPartly sunny.5 mph88%29.80 "HgN/A
7:20 PM
Tue, Jul 28
63 °FPassing clouds.7 mph59%29.74 "HgN/A
6:50 PM64 °FPassing clouds.10 mph52%29.74 "HgN/A
6:20 PM64 °FPassing clouds.10 mph52%29.74 "HgN/A
5:50 PM64 °FScattered clouds.14 mph52%29.74 "HgN/A
5:20 PM64 °FScattered clouds.13 mph49%29.74 "HgN/A
4:50 PM63 °FScattered clouds.14 mph52%29.74 "HgN/A
4:20 PM63 °FScattered clouds.16 mph56%29.74 "HgN/A
3:50 PM64 °FScattered clouds.16 mph49%29.74 "HgN/A
3:20 PM64 °FScattered clouds.14 mph49%29.71 "HgN/A
2:50 PM64 °FScattered clouds.14 mph56%29.71 "HgN/A
2:20 PM63 °FScattered clouds.14 mph59%29.71 "HgN/A
1:50 PM61 °FScattered clouds.12 mph63%29.71 "HgN/A
1:20 PM63 °FScattered clouds.13 mph59%29.71 "HgN/A
12:50 PM63 °FScattered clouds.12 mph59%29.71 "HgN/A
12:20 PM63 °FScattered clouds.12 mph59%29.71 "HgN/A
Weather by CustomWeather, © 2015

See weather overviewHow to use our weather pages